Location: Newark
(39.9581°N, 97.2014°W)
Time: 22:58:05
(UTC+00:00)

Altair - Visible Passes

Search period start: 23 February 2020 00:00
Search period end: 04 March 2020 00:00
Orbit: 1502 x 1682 km, 47.2° (Epoch: 23 February)

Date Brightness Start Highest point End Pass type
(mag) Time Alt. Az. Time Alt. Az. Time Alt. Az.
23 Feb 9.2 07:58:42 22° ENE 07:58:42 22° ENE 08:01:36 10° ENE visible
23 Feb 7.8 09:56:42 55° NNW 09:57:27 57° N 10:07:15 10° ENE visible
23 Feb 7.8 11:54:42 15° WNW 12:03:23 73° NNE 12:13:31 10° ESE visible
24 Feb 9.4 07:34:45 16° ENE 07:34:45 16° ENE 07:36:22 10° ENE visible
24 Feb 7.9 09:32:45 56° N 09:32:45 56° N 09:41:56 10° ENE visible
24 Feb 7.8 11:30:46 20° WNW 11:38:08 71° NNE 11:48:13 10° ESE visible
25 Feb 9.7 07:10:49 11° ENE 07:10:49 11° ENE 07:11:09 10° ENE visible
25 Feb 8.1 09:08:50 50° NNE 09:08:50 50° NNE 09:16:38 10° ENE visible
25 Feb 7.8 11:06:50 27° WNW 11:12:53 68° NNE 11:22:56 10° ESE visible
26 Feb 8.4 08:44:55 42° NE 08:44:55 42° NE 08:51:19 10° ENE visible
26 Feb 7.8 10:42:55 35° NW 10:47:37 66° NNE 10:57:37 10° E visible
27 Feb 8.7 08:21:02 33° NE 08:21:02 33° NE 08:26:02 10° ENE visible
27 Feb 7.8 10:19:03 44° NW 10:22:21 64° NNE 10:32:18 10° E visible
27 Feb 7.7 12:17:44 10° WNW 12:27:28 69° SW 12:37:28 10° SE visible
28 Feb 9.0 07:57:11 25° ENE 07:57:11 25° ENE 08:00:45 10° ENE visible
28 Feb 7.8 09:55:11 54° NNW 09:57:05 62° NNE 10:06:58 10° E visible
28 Feb 7.6 11:53:12 13° WNW 12:02:17 73° SW 12:12:20 10° SE visible
29 Feb 9.3 07:33:22 18° ENE 07:33:22 18° ENE 07:35:28 10° ENE visible
29 Feb 7.7 09:31:23 60° N 09:31:48 61° NNE 09:41:38 10° E visible
29 Feb 7.6 11:29:24 19° WNW 11:37:06 77° SW 11:47:10 10° SE visible
01 Mar 9.6 07:09:36 12° ENE 07:09:36 12° ENE 07:10:12 10° ENE visible
01 Mar 7.9 09:07:37 57° NE 09:07:37 57° NE 09:16:18 10° E visible
01 Mar 7.5 11:05:38 26° WNW 11:11:55 82° SSW 11:22:00 10° SE visible
02 Mar 9.1 02:21:56 10° SSE 02:22:27 11° SSE 02:22:27 11° SSE visible
02 Mar 8.2 08:43:55 46° ENE 08:43:55 46° ENE 08:50:59 10° E visible
02 Mar 7.5 10:41:57 36° WNW 10:46:43 86° SSW 10:56:48 10° SE visible
03 Mar 8.9 01:57:41 10° SSE 01:59:40 13° SE 01:59:40 13° SE visible
03 Mar 9.2 03:56:26 10° SW 03:57:47 15° SSW 03:57:47 15° SSW visible
03 Mar 8.6 08:20:18 35° ENE 08:20:18 35° ENE 08:25:39 10° E visible
03 Mar 7.4 10:18:20 50° WNW 10:21:31 90° ENE 10:31:34 10° ESE visible
03 Mar 8.2 12:17:09 10° WNW 12:25:39 35° SW 12:34:22 10° SSE visible
